Molokai, HI

9:17 AM HST on July 28, 2017 (GMT -1000)
Molokai

Weather History for PHMK - October, 2012

Change the Weather History Date:

Sunday, October 14, 2012

  Actual Average Record
Temperature  
Mean Temperature 78 °F -  
Max Temperature 84 °F 85 °F 90 °F (1973)
Min Temperature 73 °F 70 °F 63 °F (1970)
Cooling Degree Days 14    
Growing Degree Days 28 (Base 50)    
Moisture  
Dew Point 67 °F    
Average Humidity 70    
Maximum Humidity 83    
Minimum Humidity 56    
Precipitation  
Precipitation 0.07 in - - ()
Sea Level Pressure  
Sea Level Pressure 30.11 in    
Wind  
Wind Speed 12 mph (NE)    
Max Wind Speed 20 mph    
Max Gust Speed 31 mph    
Visibility 9 miles    
Events Rain    
Averages and records for this station are not official NWS values.
T = Trace of Precipitation, MM = Missing Value Source: NWS Daily Summary

Daily Weather History Graph

Daily Weather History Graph

Search for Another Location

Airport or City:

Trip Planner

Search our weather history database for the weather conditions in past years. The results will help you decide how hot, cold, wet, or windy it might be!

Date:

Astronomy

Oct. 14, 2012 Rise Set
Actual Time 6:23 AM HST 6:04 PM HST
Civil Twilight 6:01 AM HST 6:26 PM HST
Nautical Twilight 5:35 AM HST 6:52 PM HST
Astronomical Twilight 5:09 AM HST 7:18 PM HST
Moon 5:36 AM HST (10/14) 5:34 PM HST (10/14)
Length of Visible Light 12h 25m
Length of Day
11h 40m
Waning Crescent, 1% of the Moon is Illuminated
Oct 14
Waning Crescent
Oct 15
New
Oct 21
First Quarter
Oct 29
Full
Nov 6
Last Quarter

Hourly Weather History & Observations

Time (HST) Temp. Heat Index Dew Point Humidity Pressure Visibility Wind Dir Wind Speed Gust Speed Precip Events Conditions
12:54 AM - - - N/A% 30.15 in 10.0 mi NE 10.4 mph 19.6 mph N/A   Mostly Cloudy
1:17 AM - - - N/A% 30.14 in 10.0 mi NE 8.1 mph 20.7 mph N/A   Mostly Cloudy
1:33 AM - - - N/A% 30.13 in 4.0 mi NE 15.0 mph 25.3 mph 0.02 in   Unknown
1:54 AM - - - N/A% 30.12 in 10.0 mi NE 13.8 mph 26.5 mph 0.02 in   Mostly Cloudy
2:54 AM - - - N/A% 30.11 in 10.0 mi NNE 11.5 mph - N/A   Mostly Cloudy
3:54 AM - - - N/A% 30.10 in 10.0 mi NNE 9.2 mph - 0.00 in   Scattered Clouds
4:54 AM - - - N/A% 30.10 in 10.0 mi NE 12.7 mph 19.6 mph N/A   Clear
5:54 AM 73.4 °F - 66.9 °F 80% 30.12 in 10.0 mi NNE 10.4 mph 20.7 mph N/A   Partly Cloudy
6:54 AM 73.4 °F - 68.0 °F 83% 30.13 in 10.0 mi NE 10.4 mph 17.3 mph N/A   Partly Cloudy
7:54 AM 73.4 °F - 66.0 °F 78% 30.14 in 10.0 mi NNE 12.7 mph 23.0 mph N/A   Partly Cloudy
8:54 AM 77.0 °F - 66.9 °F 71% 30.14 in 10.0 mi NE 11.5 mph 18.4 mph N/A   Partly Cloudy
9:54 AM 80.6 °F 82.7 °F 66.0 °F 61% 30.15 in 10.0 mi NE 19.6 mph 25.3 mph N/A   Scattered Clouds
10:54 AM 80.6 °F 82.9 °F 66.9 °F 63% 30.14 in 10.0 mi NE 16.1 mph 26.5 mph N/A   Scattered Clouds
11:54 AM 84.2 °F 86.8 °F 66.9 °F 56% 30.12 in 10.0 mi NNE 18.4 mph 31.1 mph N/A   Scattered Clouds
12:54 PM 82.4 °F 85.8 °F 69.1 °F 64% 30.10 in 10.0 mi NE 17.3 mph 25.3 mph N/A   Scattered Clouds
1:54 PM 82.4 °F 84.8 °F 66.9 °F 59% 30.07 in 10.0 mi NE 13.8 mph 25.3 mph N/A   Scattered Clouds
2:54 PM 82.4 °F 85.4 °F 68.0 °F 62% 30.06 in 10.0 mi NE 17.3 mph 26.5 mph N/A   Scattered Clouds
3:54 PM 78.8 °F - 66.0 °F 65% 30.07 in 10.0 mi NE 11.5 mph 21.9 mph N/A   Scattered Clouds
4:54 PM 77.0 °F - 69.1 °F 76% 30.07 in 10.0 mi NNE 13.8 mph 21.9 mph N/A   Scattered Clouds
5:54 PM 77.0 °F - 68.0 °F 74% 30.09 in 10.0 mi NE 10.4 mph 19.6 mph N/A   Scattered Clouds
6:54 PM 73.4 °F - 68.0 °F 83% 30.10 in 6.0 mi NNE 12.7 mph - 0.00 in Rain Light Rain
7:33 PM - - - N/A% 30.10 in 8.0 mi NE 10.4 mph 17.3 mph 0.03 in Rain Light Rain
7:54 PM - - - N/A% 30.11 in 7.0 mi NE 12.7 mph 25.3 mph 0.03 in Rain Light Rain
8:04 PM - - - N/A% 30.11 in 10.0 mi NE 12.7 mph 23.0 mph 0.00 in   Scattered Clouds
8:51 PM - - - N/A% 30.12 in 6.0 mi NNE 9.2 mph - 0.00 in Rain Light Rain
8:54 PM - - - N/A% 30.13 in 5.0 mi NNE 9.2 mph - 0.00 in Rain Light Rain
9:06 PM - - - N/A% 30.12 in 6.0 mi NE 12.7 mph - 0.00 in Rain Rain
9:25 PM - - - N/A% 30.12 in 6.0 mi NE 10.4 mph 19.6 mph 0.01 in Rain Light Rain
9:54 PM - - - N/A% 30.12 in 9.0 mi NE 9.2 mph 19.6 mph 0.01 in   Mostly Cloudy
10:05 PM - - - N/A% 30.12 in 7.0 mi NE 11.5 mph 17.3 mph 0.01 in Rain Light Rain
10:36 PM - - - N/A% 30.12 in 10.0 mi NE 9.2 mph 18.4 mph 0.01 in   Scattered Clouds
10:54 PM - - - N/A% 30.12 in 10.0 mi NE 9.2 mph 23.0 mph 0.01 in   Clear
11:21 PM - - - N/A% 30.12 in 10.0 mi NE 13.8 mph 23.0 mph 0.00 in Rain Light Rain
11:46 PM - - - N/A% 30.12 in 10.0 mi NE 16.1 mph 23.0 mph 0.00 in Rain Light Rain
11:54 PM - - - N/A% 30.11 in 10.0 mi NE 13.8 mph 25.3 mph 0.00 in Rain Light Rain